User: anonymous   Login
Location: Unspecified
(0.0000°N, 0.0000°E)
Time: 02:12:16
(UTC+00:00)
Language:

STARLINK-31941 - Orbit

View from above orbital plane
View from above orbital plane
View from above satellite
View from above satellite

Ground track
Ground track

The orbit is defined by the following mean orbital elements,

1 59866U          26145.56147856 +.00000000 +00000-0 +42437-4 0 00001
2 59866  43.0018 186.1209 0001130 277.2491  82.8232 15.27579044    05
Epoch (UTC): 25 May 2026 13:28:31
Eccentricity: 0.0001130
inclination: 43.0018°
perigee height: 482 km
apogee height: 484 km
right ascension of ascending node: 186.1209°
argument of perigee: 277.2491°
revolutions per day: 15.27579044
mean anomaly at epoch: 82.8232°

The dashed part of the orbit path shows where the satellite is in the earth's shadow,  

DLR